ATLAS CENTAUR 2 1 00694U 63047A 25352.52308699 .00001807 00000+0 21161-3 0 9997 2 00694 30.3535 289.1539 0548844 85.1247 281.1764 14.11786682120148 THOR AGENA D R/B 1 00733U 64002A 25352.58360338 .00000180 00000+0 81391-4 0 9992 2 00733 99.1216 356.5183 0033603 133.4889 226.9096 14.33963076226674 SL-3 R/B 1 00877U 64053B 25352.32121246 .00000174 00000+0 58283-4 0 9999 2 00877 65.0753 209.7725 0074335 318.5174 41.0297 14.61280389254908 SL-8 R/B 1 02802U 67045B 25352.60611370 .00000366 00000+0 10888-3 0 9997 2 02802 74.0102 139.5083 0064007 167.4098 192.8678 14.45543308 77304 SL-8 R/B 1 03230U 68040B 25352.49957336 .00003201 00000+0 24206-3 0 9991 2 03230 74.0307 119.5034 0025785 320.0847 39.8444 15.02564215 77811 OAO 2 1 03597U 68110A 25352.44509168 .00000209 00000+0 61558-4 0 9993 2 03597 34.9949 358.8096 0006096 265.7991 94.2003 14.47247823 7325 ISIS 1 1 03669U 69009A 25352.45907454 .00000192 00000+0 13923-3 0 9995 2 03669 88.4488 164.1706 1706923 253.1370 87.6254 11.30356980339351 SERT 2 1 04327U 70009A 25352.48727314 .00000021 00000+0 85125-4 0 9992 2 04327 99.2658 295.0672 0005277 21.7509 89.4206 13.58718576768868 SL-3 R/B 1 05118U 71028B 25352.59722117 .00025772 00000+0 38339-3 0 9995 2 05118 81.2366 151.6876 0019233 219.4266 140.5585 15.54774366976047 ASTEX 1 1 05560U 71089A 25352.36127975 .00000489 00000+0 12462-3 0 9996 2 05560 92.7145 125.4380 0015678 7.8581 352.2867 14.50649249850511 SL-8 R/B 1 05730U 71119B 25352.40008619 .00012101 00000+0 62995-3 0 9997 2 05730 73.8884 327.4427 0558941 310.5696 44.8047 14.35868928643819 OAO 3 (COPERNICUS) 1 06153U 72065A 25352.57665863 .00000295 00000+0 65020-4 0 9990 2 06153 35.0067 39.4159 0006983 220.8086 294.9502 14.59911381834335 ATLAS CENTAUR R/B 1 06155U 72065B 25352.53913073 .00000994 00000+0 13961-3 0 9999 2 06155 35.0020 61.2254 0033409 46.8895 313.4593 14.77424657829259 SL-8 R/B 1 08459U 75112B 25352.60420941 .00000268 00000+0 96827-4 0 9996 2 08459 74.0588 168.0709 0016667 278.8387 81.0879 14.38148971620210 SL-3 R/B 1 10114U 77057B 25352.59256913 .00010000 00000+0 22818-3 0 9994 2 10114 97.5678 156.1487 0006861 208.6337 151.4535 15.43081264655816 SEASAT 1 1 10967U 78064A 25352.56231281 .00000240 00000+0 10579-3 0 9993 2 10967 108.0125 315.2498 0001476 252.0179 108.0806 14.46067748494780 SL-14 R/B 1 11267U 79011B 25352.55656692 .00000509 00000+0 47933-4 0 9999 2 11267 82.5232 173.5273 0015382 333.5760 26.4673 14.91776377516681 SL-8 R/B 1 11574U 79089B 25352.17719772 .00000227 00000+0 76808-4 0 9992 2 11574 74.0686 241.9158 0014564 74.0158 286.2601 14.42287313424354 SL-14 R/B 1 11672U 80005B 25352.58348987 .00000448 00000+0 42846-4 0 9992 2 11672 82.5145 24.1570 0017316 75.6972 284.6168 14.90798288464406 SL-8 R/B 1 12139U 81003B 25352.51400266 .00012662 00000+0 33461-3 0 9995 2 12139 82.9307 4.8896 0278867 100.3812 262.8975 15.07199987302432 SL-3 R/B 1 12465U 81046B 25352.60845408 .00008384 00000+0 21011-3 0 9999 2 12465 81.2326 26.9173 0018453 303.1954 56.7517 15.39723098425948 SL-3 R/B 1 12904U 81103B 25352.58369459 .00004700 00000+0 21488-3 0 9991 2 12904 81.1591 308.5086 0012077 191.5315 168.5642 15.20298186960903 SL-3 R/B 1 13068U 82013B 25352.43222875 .00004008 00000+0 17750-3 0 9996 2 13068 81.1752 255.9460 0024219 92.5704 267.8300 15.21134011391996 SL-3 R/B 1 13154U 82039B 25352.60500933 .00002224 00000+0 13580-3 0 9998 2 13154 81.1713 309.3490 0029473 232.3705 127.4845 15.09558155369409 SL-3 R/B 1 13403U 82079B 25352.59152733 .00004882 00000+0 20052-3 0 9992 2 13403 81.1474 288.7622 0027119 80.2793 280.1501 15.23653159365340 SL-14 R/B 1 13553U 82092B 25352.59664198 .00000375 00000+0 39488-4 0 9993 2 13553 82.5677 217.2345 0019588 206.5965 175.6082 14.86561118316888 SL-3 R/B 1 13819U 83010B 25352.41195914 .00013212 00000+0 29147-3 0 9999 2 13819 81.1049 101.6949 0016858 331.1195 28.9113 15.43608862345399 SL-3 R/B 1 14208U 83075B 25352.58456557 .00008198 00000+0 23239-3 0 9997 2 14208 97.6097 349.2648 0023378 154.9698 205.2685 15.36249795317691 COSMOS 1536 1 14699U 84013A 25352.58981153 .00004836 00000+0 20636-3 0 9992 2 14699 82.5442 188.3621 0013918 203.6201 156.4399 15.22582072260279 SL-14 R/B 1 14820U 84027B 25352.41427762 .00000435 00000+0 47083-4 0 9993 2 14820 82.5415 321.2342 0016511 240.2503 119.7071 14.85880487235569 SL-8 R/B 1 15483U 85006B 25352.60541383 .00000184 00000+0 69698-4 0 9991 2 15483 74.0465 50.3433 0018927 341.2695 127.1107 14.37724364142371 SL-12 R/B(2) 1 15772U 85042D 25352.53636159 .00000132 00000+0 80662-4 0 9997 2 15772 71.1079 259.1743 0037469 253.0267 280.5127 14.21953705102852 SL-14 R/B 1 15945U 85069B 25352.55845849 .00000437 00000+0 46662-4 0 9998 2 15945 82.5272 101.2329 0020339 100.6023 259.7486 14.86331151160785 SL-16 R/B 1 16182U 85097B 25352.36795076 .00000134 00000+0 91201-4 0 9991 2 16182 71.0037 311.7538 0007056 1.6822 110.3511 14.16587297 75715 SL-14 R/B 1 16496U 86006B 25352.35367772 .00000514 00000+0 52011-4 0 9995 2 16496 82.5267 336.2684 0076655 181.1163 178.9896 14.86678985137124 COSMOS 1743 1 16719U 86034A 25352.52049472 .00025439 00000+0 41451-3 0 9995 2 16719 82.5338 158.5857 0004797 228.0607 132.0237 15.52469014167634 SL-14 R/B 1 16792U 86046B 25352.50748185 .00000450 00000+0 49074-4 0 9990 2 16792 82.4813 156.8668 0024190 133.8725 226.4495 14.85490905114359 SL-14 R/B 1 16882U 86055B 25352.57264147 .00000377 00000+0 40713-4 0 9997 2 16882 82.5198 202.8919 0017621 238.4771 181.5049 14.85536284107327 AJISAI (EGS) 1 16908U 86061A 25352.61347542 -.00000095 00000+0 20914-4 0 9998 2 16908 50.0113 342.6559 0011315 80.6342 24.6580 12.44514350457903 COSMOS 1812 1 17295U 87003A 25352.25420005 .00106333 00000+0 66132-3 0 9993 2 17295 82.4877 286.0421 0007007 78.9645 281.2408 15.76601137131522 SL-14 R/B 1 17567U 87024B 25352.57032334 .00000437 00000+0 47076-4 0 9992 2 17567 82.5275 168.9771 0018593 164.9235 195.2539 14.86029641 76088 COSMOS 1833 1 17589U 87027A 25352.59344225 .00000190 00000+0 12727-3 0 9996 2 17589 70.9146 136.4715 0022781 323.5338 36.4230 14.13024256998858 SL-16 R/B 1 17590U 87027B 25352.59043854 .00000236 00000+0 14100-3 0 9990 2 17590 71.0036 87.3900 0007282 253.2852 106.7472 14.17154359 3857 SL-14 R/B 1 17912U 87038B 25352.52359123 .00000361 00000+0 39100-4 0 9999 2 17912 82.5012 13.2529 0020836 74.4084 285.9430 14.85266252 67182 COSMOS 1844 1 17973U 87041A 25352.64356835 .00000174 00000+0 11528-3 0 9995 2 17973 70.8964 205.1190 0029878 147.7635 212.5321 14.14527276992126 SL-14 R/B 1 18153U 87055B 25352.58180319 .00000382 00000+0 41358-4 0 9992 2 18153 82.4998 65.4829 0019202 282.6253 77.2815 14.85527011 57899 COSMOS 1867 1 18187U 87060A 25352.61102747 -.00000049 00000+0 19130-4 0 9992 2 18187 65.0086 173.7604 0013633 271.6782 88.2741 14.31487010 8332 SL-14 R/B 1 18749U 88001B 25352.50443450 .00000384 00000+0 41664-4 0 9997 2 18749 82.5135 271.7255 0018962 142.7251 217.5285 14.85429757 29971 COSMOS 1933 1 18958U 88020A 25352.42509061 .00004333 00000+0 21678-3 0 9992 2 18958 82.5129 331.2606 0006200 112.6294 247.5596 15.17154411 37901 SL-3 R/B 1 19046U 88032B 25352.59349787 .00003728 00000+0 18086-3 0 9995 2 19046 97.5078 331.2735 0027342 152.9021 207.3647 15.18798712 39796 SL-16 R/B 1 19120U 88039B 25352.38408388 .00000131 00000+0 84553-4 0 9993 2 19120 71.0138 240.4642 0019612 106.6073 253.7208 14.19597467946840 COSMOS 1953 1 19210U 88050A 25351.75027580 .00004793 00000+0 17925-3 0 9993 2 19210 82.5093 240.5536 0013540 56.0210 304.2313 15.26995692 25270 SL-8 R/B 1 19257U 88053B 25352.54119616 .00000202 00000+0 73929-4 0 9995 2 19257 74.0476 262.0277 0018963 103.9345 69.2325 14.38862668964921 COSMOS 1975 1 19573U 88093A 25352.61490096 .00005598 00000+0 21241-3 0 9994 2 19573 82.5193 198.9467 0013051 94.2571 266.0159 15.26554156 7036 SL-14 R/B 1 19574U 88093B 25352.43343419 .00000439 00000+0 47848-4 0 9992 2 19574 82.5311 118.3241 0019540 309.6791 113.3309 14.85555199988975 SL-16 R/B 1 19650U 88102B 25352.32121825 .00000262 00000+0 15658-3 0 9998 2 19650 71.0001 322.6987 0012747 142.2541 217.9479 14.16138400915371 INTERCOSMOS 24 1 20261U 89080A 25352.46440836 .00000628 00000+0 17615-3 0 9996 2 20261 82.6049 157.2308 1188923 121.2456 251.0636 12.59449914656571 SL-14 R/B 1 20262U 89080C 25352.58470643 .00000320 00000+0 91727-4 0 9995 2 20262 82.5923 225.2689 1230567 10.2330 352.1510 12.50418287650017 DELTA 1 R/B 1 20323U 89089B 25352.57198264 .00000257 00000+0 72346-4 0 9992 2 20323 97.0747 207.8851 0069688 20.0898 340.3019 14.50576667883973 ARIANE 40 R/B 1 20443U 90005H 25352.57675307 .00000235 00000+0 88349-4 0 9999 2 20443 98.3237 50.5897 0011291 90.0032 270.2450 14.39802925881133 DELTA 2 R/B(1) 1 20453U 90008B 25352.37087825 .00039650 00000+0 62425-3 0 9992 2 20453 35.6075 344.1569 0111322 229.7297 129.3659 15.45665871913503 COSMOS 2058 1 20465U 90010A 25352.45502144 .00004520 00000+0 27239-3 0 9995 2 20465 82.4687 127.4086 0008758 249.6358 110.3931 15.10526424929971 SL-14 R/B 1 20466U 90010B 25352.47878779 .00000390 00000+0 44460-4 0 9995 2 20466 82.5019 343.6567 0019124 203.3094 156.7256 14.83476619916442 SL-14 R/B 1 20511U 90018B 25352.35099088 .00000433 00000+0 51496-4 0 9994 2 20511 82.5213 299.1199 0016528 5.4196 354.7194 14.82052535910535 HST 1 20580U 90037B 25352.01685464 .00005688 00000+0 19368-3 0 9991 2 20580 28.4674 236.5696 0001951 306.2447 53.7967 15.28122533760807 SL-16 R/B 1 20625U 90046B 25352.61337789 -.00000283 00000+0 -12124-3 0 9992 2 20625 70.9992 108.1867 0011960 62.7515 297.4824 14.14999606836920 COSMOS 2084 1 20663U 90055A 25352.14912891 .00002263 00000+0 17118-3 0 9991 2 20663 62.7902 253.5611 0030842 175.3802 184.7589 15.05051359924046 SL-6 R/B(2) 1 20666U 90055D 25352.62176217 .00001581 00000+0 13106-3 0 9996 2 20666 62.7810 169.4290 0013330 312.8324 47.1654 15.03099687926002 SL-8 R/B 1 20775U 90078B 25352.45439163 .00016288 00000+0 50364-3 0 9992 2 20775 82.9042 324.1937 0371030 286.6719 69.4081 14.86162782797220 SL-8 R/B 1 21088U 91006B 25352.62579255 .00000099 00000+0 84313-4 0 9993 2 21088 82.9420 230.3348 0021178 262.3142 116.1807 13.77490995752910 OKEAN-3 1 21397U 91039A 25352.60290318 .00002646 00000+0 18848-3 0 9999 2 21397 82.5180 55.3732 0013388 243.9566 116.0282 15.04158683852849 COSMOS 2151 1 21422U 91042A 25352.56145561 .00001692 00000+0 13481-3 0 9994 2 21422 82.4962 161.8929 0012091 339.7368 20.3375 14.99707766851035 SL-14 R/B 1 21423U 91042B 25352.25192546 .00000378 00000+0 44895-4 0 9990 2 21423 82.4932 296.5541 0017918 144.3264 215.9152 14.81743971841018 ERS-1 1 21574U 91050A 25352.57615948 .00000249 00000+0 94378-4 0 9995 2 21574 98.7901 3.7769 0033023 83.2438 277.2505 14.39369141804063 ARIANE 40 R/B 1 21610U 91050F 25352.61183290 .00000268 00000+0 92960-4 0 9997 2 21610 98.2158 42.8304 0002430 340.6505 19.4593 14.42818082807305 INTERCOSMOS 25 1 21819U 91086A 25352.41462229 .00002083 00000+0 41494-3 0 9999 2 21819 82.6065 359.1436 1486387 292.1628 52.8480 12.11748402486845 SL-8 R/B 1 21876U 92008B 25352.43409959 .00000118 00000+0 10587-3 0 9996 2 21876 82.9267 328.2106 0034840 4.0786 106.9275 13.75960260698244 SL-8 R/B 1 21938U 92020B 25352.65889970 .00000123 00000+0 11170-3 0 9993 2 21938 82.9299 213.9222 0029291 161.6786 252.9161 13.75528493689997 USA 81 1 21949U 92023A 25352.62280617 .00000166 00000+0 54084-4 0 9997 2 21949 85.0079 178.1831 0001183 73.5266 286.6056 14.32328973 83182 COSMOS 2219 1 22219U 92076A 25352.59598996 .00000150 00000+0 10329-3 0 9990 2 22219 71.0572 187.5904 0019176 318.9380 41.0298 14.14063742706919 SL-16 R/B 1 22220U 92076B 25352.45361450 .00000239 00000+0 14296-3 0 9995 2 22220 71.0005 359.4954 0014476 226.2904 285.4957 14.16842364710321 COSMOS 2221 1 22236U 92080A 25352.50408993 .00001577 00000+0 13880-3 0 9991 2 22236 82.5038 356.8077 0016236 103.9114 256.3915 14.95781498768655 SL-16 R/B 1 22285U 92093B 25352.60978432 .00000230 00000+0 14203-3 0 9995 2 22285 71.0203 174.4734 0002306 51.1779 308.9549 14.15433654701681 COSMOS 2228 1 22286U 92094A 25352.57341793 .00001869 00000+0 16081-3 0 9992 2 22286 82.5180 314.9522 0016931 210.4247 149.5995 14.96755566763925 SL-16 R/B 1 22566U 93016B 25352.50076330 .00000226 00000+0 14029-3 0 9999 2 22566 71.0079 25.7039 0008007 86.4641 273.7398 14.15288254690685 COSMOS 2242 1 22626U 93024A 25352.45444253 .00001717 00000+0 15004-3 0 9992 2 22626 82.5183 344.3822 0015329 213.5668 146.4584 14.96129268768241 SL-16 R/B 1 22803U 93059B 25352.59043208 -.00000043 00000+0 23990-5 0 9994 2 22803 70.9880 182.1484 0018288 327.3350 32.6641 14.17213042668048 ARIANE 40 R/B 1 22830U 93061H 25352.41443661 .00000216 00000+0 95195-4 0 9991 2 22830 98.5070 57.8410 0011198 159.6941 200.4690 14.32805121682460 COSMOS 2278 1 23087U 94023A 25352.40608437 -.00000197 00000+0 -78165-4 0 9996 2 23087 71.0535 345.1556 0008014 169.8446 190.2840 14.14348758633318 SL-16 R/B 1 23088U 94023B 25352.41889434 -.00000182 00000+0 -69621-4 0 9997 2 23088 70.9994 241.5598 0001704 11.5777 348.5385 14.15002219634593 SL-16 R/B 1 23343U 94074B 25352.57829575 .00000374 00000+0 56840-4 0 9994 2 23343 97.7196 21.6507 0007851 119.7015 40.7424 14.79296124675253 SL-16 R/B 1 23405U 94077B 25352.64420895 .00000068 00000+0 59186-4 0 9992 2 23405 70.9818 162.9926 0004908 281.0612 78.9959 14.15552723604760 ARIANE 40+ R/B 1 23561U 95021B 25352.66346433 .00000252 00000+0 94512-4 0 9999 2 23561 98.4646 60.1808 0007202 33.7570 128.1351 14.39699915607588 SL-16 R/B 1 23705U 95058B 25352.43517798 -.00000191 00000+0 -73492-4 0 9996 2 23705 71.0222 350.8468 0014929 248.0933 111.8603 14.15483599556354 SL-16 R/B 1 24298U 96051B 25352.43767800 -.00000018 00000+0 16749-4 0 9998 2 24298 70.7595 347.2229 0019467 254.3640 105.5332 14.12397340510177 ORBVIEW 2 (SEASTAR) 1 24883U 97037A 25352.42205549 .00000216 00000+0 91602-4 0 9999 2 24883 98.8459 149.6396 0001424 319.1237 40.9841 14.35421183496811 SL-16 R/B 1 25400U 98043G 25352.48171464 .00000034 00000+0 33356-4 0 9997 2 25400 98.8133 300.3321 0008818 248.0634 111.9608 14.26026938427414 SL-16 R/B 1 25407U 98045B 25352.41542263 .00000042 00000+0 45520-4 0 9993 2 25407 71.0114 352.4905 0006618 167.6974 192.4312 14.16174657415591 ISS (ZARYA) 1 25544U 98067A 25352.53865931 .00007413 00000+0 13939-3 0 9999 2 25544 51.6314 113.7624 0003172 267.0099 93.0526 15.49652631543753 CZ-4B R/B 1 25732U 99025C 25352.62499528 .00000072 00000+0 55553-4 0 9991 2 25732 98.6761 33.7733 0036516 216.7342 307.4916 14.18245071376672 OKEAN-O 1 25860U 99039A 25352.60326217 .00000608 00000+0 86977-4 0 9999 2 25860 97.9595 48.2541 0000942 108.8501 251.2813 14.80171493422399 SL-16 R/B 1 25861U 99039B 25352.59271837 .00000482 00000+0 68134-4 0 9990 2 25861 98.0119 46.7442 0015370 156.0279 204.1652 14.81594821424851 DELTA 2 R/B 1 25876U 99041E 25352.44922555 .00000843 00000+0 17568-3 0 9998 2 25876 51.7613 265.6544 0504578 108.5939 257.0468 14.11416311351553 HELIOS 1B 1 25977U 99064A 25352.65658487 .00001382 00000+0 15970-3 0 9992 2 25977 98.1757 247.4976 0001401 35.8476 324.2833 14.87304854673215 TERRA 1 25994U 99068A 25352.63473225 .00000370 00000+0 84676-4 0 9994 2 25994 97.9741 44.1027 0003564 82.8541 32.5329 14.60908370383244 SL-16 R/B 1 26070U 00006B 25352.48036939 -.00000218 00000+0 -86593-4 0 9997 2 26070 71.0022 268.5874 0018575 300.9171 59.0126 14.15808866337065 TITAN 4B R/B 1 26474U 00047B 25352.57666679 .00002794 00000+0 18270-3 0 9995 2 26474 67.9899 268.4615 0038518 137.5857 222.8280 15.08822926380677 ENVISAT 1 27386U 02009A 25351.77264056 .00000090 00000+0 43004-4 0 9993 2 27386 98.3606 302.3857 0001134 84.6854 335.5668 14.39001060247397 IDEFIX & ARIANE 42P R/B 1 27422U 02021B 25352.52673775 .00000223 00000+0 10119-3 0 9992 2 27422 98.5793 287.1426 0012911 68.1201 292.1353 14.30954471232417 AQUA 1 27424U 02022A 25352.03089332 .00000845 00000+0 17905-3 0 9991 2 27424 98.4043 312.9961 0001287 113.4651 320.6588 14.61821302256800 CZ-4B R/B 1 27432U 02024C 25352.59868204 .00000046 00000+0 47036-4 0 9998 2 27432 98.8992 41.3498 0049198 252.9291 226.3227 14.14529092217770 MIDORI II (ADEOS-II) 1 27597U 02056A 25352.45611184 .00000207 00000+0 99341-4 0 9998 2 27597 98.7644 305.4426 0000487 151.7575 208.3633 14.29209543198691 H-2A R/B 1 27601U 02056E 25352.48480071 .00000291 00000+0 11629-3 0 9991 2 27601 98.3073 311.0129 0071220 44.2776 76.1247 14.33680968202477 CZ-4B R/B 1 28059U 03049C 25352.57887234 .00000304 00000+0 81226-4 0 9990 2 28059 98.6790 339.3634 0049242 118.5684 242.0480 14.54914725174802 CZ-2C R/B 1 28222U 04012C 25352.59259474 .00031671 00000+0 45407-3 0 9995 2 28222 97.7419 45.6993 0016474 247.4604 112.4906 15.55946569191638 SL-16 R/B 1 28353U 04021B 25352.56145324 -.00000130 00000+0 -42743-4 0 9994 2 28353 71.0009 42.7484 0004981 190.4524 169.6495 14.14578914111362 CZ-4B R/B 1 28415U 04035C 25352.58849007 .00006629 00000+0 24590-3 0 9995 2 28415 97.3600 22.8549 0031529 255.5820 104.1920 15.27464177167526 CZ-2C R/B 1 28480U 04046B 25352.49839598 .00000169 00000+0 77669-4 0 9992 2 28480 98.1993 267.5183 0140244 35.3830 325.6560 14.26943864 96922 ARIANE 5 R/B 1 28499U 04049H 25352.44725088 .00000963 00000+0 11338-3 0 9990 2 28499 98.2523 152.9333 0083316 254.1761 105.0255 14.85025940133739 CZ-2D R/B 1 28738U 05024B 25352.58405600 .00024281 00000+0 38304-3 0 9991 2 28738 97.3625 0.1856 0004502 344.5552 15.5563 15.53517578127160 ALOS (DAICHI) 1 28931U 06002A 25351.73419158 .00001110 00000+0 19545-3 0 9994 2 28931 98.1098 303.1864 0001361 113.5739 246.5610 14.69501788 61443 H-2A R/B 1 28932U 06002B 25352.40083239 .00009642 00000+0 50581-3 0 9990 2 28932 98.2318 127.6119 0054646 157.2487 203.1182 15.14682599 82123 RESURS-DK 1 1 29228U 06021A 25352.58530893 .00002088 00000+0 12682-3 0 9999 2 29228 69.9338 86.7315 0006912 254.7402 105.2999 15.12192765 75269 CZ-4B R/B 1 29507U 06046C 25352.57794111 .00003842 00000+0 20122-3 0 9997 2 29507 97.5730 32.7010 0033768 185.9934 174.0899 15.15929694 47757 CZ-2C R/B 1 31114U 07010B 25352.56627308 .00000107 00000+0 67862-4 0 9992 2 31114 98.3976 104.9238 0059323 169.0363 191.2123 14.20212182968208 COSMO-SKYMED 1 1 31598U 07023A 25352.60810851 .00003410 00000+0 31082-3 0 9998 2 31598 97.8835 178.0456 0001574 86.8865 273.2535 14.95810351 2788 COSMOS 2428 1 31792U 07029A 25352.47299113 .00000147 00000+0 10465-3 0 9993 2 31792 70.9365 13.8422 0003994 15.3964 344.7278 14.12891781952628 SL-16 R/B 1 31793U 07029B 25352.41676458 .00000137 00000+0 95867-4 0 9998 2 31793 70.9756 343.2237 0001965 261.7919 250.2850 14.14815440953875 KORONAS-FOTON 1 33504U 09003A 25352.46775716 .00008582 00000+0 20450-3 0 9993 2 33504 82.4304 0.1700 0013417 90.5578 269.7206 15.41314051933222 CZ-2C R/B 1 37731U 11030B 25352.48209590 .00001160 00000+0 15365-3 0 9990 2 37731 97.8421 306.4618 0051352 254.3977 220.0984 14.80919815778075 H-2A R/B 1 38341U 12025E 25352.46473300 .00001823 00000+0 17210-3 0 9990 2 38341 98.4605 308.1364 0044101 217.2536 142.5621 14.94484096736088 SHIJIAN-16 (SJ-16) 1 39358U 13057A 25352.63721987 .00000661 00000+0 67912-4 0 9995 2 39358 74.9727 338.4963 0017770 305.9753 53.9786 14.91998313659417 SL-4 R/B 1 39679U 14021B 25352.33841162 .00011604 00000+0 27712-3 0 9990 2 39679 51.6090 13.3831 0101297 166.4131 193.9615 15.36802194643756 ALOS-2 1 39766U 14029A 25352.55947201 .00001810 00000+0 24910-3 0 9995 2 39766 97.9225 87.3230 0001370 96.8901 263.2467 14.79477181624870 YAOGAN-29 1 41038U 15069A 25352.62264804 .00000354 00000+0 50388-4 0 9995 2 41038 98.0215 15.8137 0000373 190.7353 169.3853 14.82888260543867 ASTRO-H (HITOMI) 1 41337U 16012A 25352.57575169 .00002696 00000+0 15877-3 0 9993 2 41337 30.9976 159.7466 0009678 237.5309 122.4394 15.09388181539962 HXMT (HUIYAN) 1 42758U 17034A 25352.65369772 .00004875 00000+0 25622-3 0 9996 2 42758 43.0137 106.8081 0031130 82.2554 278.1827 15.16300438470236 CZ-2C R/B 1 43521U 18054D 25352.50352998 .00102225 00000+0 64191-3 0 9996 2 43521 35.1317 141.7738 0015116 202.8849 157.1212 15.75281114415964 SAOCOM 1A 1 43641U 18076A 25352.61280051 .00000637 00000+0 86510-4 0 9999 2 43641 97.8839 176.9487 0001448 80.6550 279.4827 14.82164845389357 H-2A R/B 1 43682U 18084L 25352.48478386 .00016993 00000+0 45775-3 0 9997 2 43682 98.8766 187.7551 0026951 306.4309 53.4446 15.37574034393281 SAOCOM 1B 1 46265U 20059A 25352.64406448 .00000191 00000+0 30530-4 0 9997 2 46265 97.8834 176.0798 0001393 85.4119 274.7254 14.82142897286740 CSS (TIANHE) 1 48274U 21035A 25352.28684694 .00023377 00000+0 29030-3 0 9998 2 48274 41.4683 343.0261 0007725 79.3286 280.8422 15.59417882264893 COSMOS 2550 1 48865U 21056A 25352.65994183 -.00000099 00000+0 28126-5 0 9999 2 48865 67.1431 286.0265 0008357 269.0718 90.9479 15.33829481251033 CZ-2C R/B 1 52794U 22058K 25352.48524090 .00023076 00000+0 41195-3 0 9993 2 52794 50.1911 14.2431 0045044 222.2982 137.4509 15.48776327197528 CZ-2C R/B 1 54039U 22132E 25352.52685816 .00027429 00000+0 40305-3 0 9997 2 54039 97.2938 348.8371 0022225 37.6889 322.5917 15.55162923177732 GSLV R/B 1 54149U 22138AN 25352.60774960 .00001517 00000+0 13146-3 0 9996 2 54149 87.3820 193.5089 0024228 86.5128 273.8874 14.96159185171801 XRISM 1 57800U 23137A 25352.58376198 .00004098 00000+0 23771-3 0 9993 2 57800 31.0025 87.8105 0007732 303.9387 56.0516 15.10391159125516 ACS3 1 59588U 24077B 25352.45852289 .00018446 00000+0 15732-1 0 9996 2 59588 97.2639 306.7870 0076489 324.3279 35.2785 13.85750928 82938 SZ-21 MODULE 1 66515U 25246C 25352.35514958 .00025551 00000+0 27860-3 0 9992 2 66515 41.4774 341.7845 0005854 290.1533 69.8677 15.62772734 5326